When you browse on this site, cookies collect data to enhance your experience and personalize the content and advertising you see.
Visit our Privacy Policy to learn more. By continuing to use the site, you agree to this use of cookies and data.

Hourly Weather Varzi-Omga

Today, 16 July, Thursday

Time Temperature Precipitation Wind Pressure Humidity
00:00 +25°C° 0 mm 1 mps 746 mmHg 85%
01:00 +25°C° 0 mm 1 mps 746 mmHg 85%
02:00 +24°C° 0 mm 1 mps 746 mmHg 84%
03:00 +23°C° 0 mm 1 mps 746 mmHg 83%
04:00 +23°C° 0 mm 2 mps 746 mmHg 78%
05:00 +23°C° 0 mm 1 mps 746 mmHg 77%
06:00 +24°C° 0 mm 1 mps 746 mmHg 76%
07:00 +25°C° 0 mm 1 mps 746 mmHg 75%
08:00 +26°C° 0 mm 1 mps 746 mmHg 71%
09:00 +27°C° 0 mm 1 mps 746 mmHg 67%
10:00 +27°C° 0 mm 0 mps 746 mmHg 62%
11:00 +30°C° 0 mm 1 mps 746 mmHg 60%
12:00 +30°C° 0 mm 1 mps 746 mmHg 58%
13:00 +31°C° 0 mm 1 mps 746 mmHg 56%
14:00 +30°C° 0.6 mm 2 mps 746 mmHg 61%
15:00 +29°C° 0.6 mm 2 mps 746 mmHg 66%
16:00 +27°C° 0.6 mm 3 mps 746 mmHg 70%
17:00 +27°C° 0.4 mm 3 mps 746 mmHg 74%
18:00 +26°C° 0.4 mm 4 mps 746 mmHg 78%
19:00 +25°C° 0.4 mm 4 mps 746 mmHg 82%
20:00 +24°C° 0.9 mm 3 mps 746 mmHg 83%
21:00 +21°C° 0.9 mm 2 mps 746 mmHg 85%
22:00 +21°C° 0.9 mm 1 mps 746 mmHg 86%
23:00 +21°C° 0.3 mm 1 mps 746 mmHg 87%

Tomorrow, 17 July, Friday

Time Temperature Precipitation Wind Pressure Humidity
00:00 +19°C° 0.3 mm 2 mps 746 mmHg 88%
01:00 +19°C° 0.3 mm 2 mps 746 mmHg 89%
02:00 +20°C° 0.1 mm 1 mps 746 mmHg 90%
03:00 +20°C° 0.1 mm 1 mps 746 mmHg 91%
04:00 +20°C° 0.1 mm 1 mps 746 mmHg 92%
05:00 +20°C° 0.2 mm 1 mps 746 mmHg 90%
06:00 +21°C° 0.2 mm 1 mps 746 mmHg 89%
07:00 +22°C° 0.2 mm 1 mps 746 mmHg 87%
08:00 +23°C° 0.1 mm 1 mps 746 mmHg 84%
09:00 +24°C° 0.1 mm 1 mps 746 mmHg 81%
10:00 +24°C° 0.1 mm 2 mps 746 mmHg 78%
11:00 +25°C° 0 mm 2 mps 746 mmHg 74%
12:00 +26°C° 0 mm 2 mps 746 mmHg 70%
13:00 +27°C° 0 mm 2 mps 746 mmHg 66%
14:00 +27°C° 0 mm 3 mps 746 mmHg 65%
15:00 +27°C° 0 mm 3 mps 746 mmHg 64%
16:00 +27°C° 0 mm 4 mps 746 mmHg 63%
17:00 +26°C° 0 mm 4 mps 746 mmHg 67%
18:00 +25°C° 0 mm 4 mps 746 mmHg 70%
19:00 +23°C° 0 mm 4 mps 746 mmHg 74%
20:00 +21°C° 0 mm 3 mps 746 mmHg 77%
21:00 +20°C° 0 mm 3 mps 746 mmHg 80%
22:00 +18°C° 0 mm 3 mps 746 mmHg 83%
23:00 +17°C° 0 mm 3 mps 746 mmHg 86%

Day after tomorrow, 18 July, Saturday

Time Temperature Precipitation Wind Pressure Humidity
00:00 +17°C° 0 mm 2 mps 747 mmHg 88%
01:00 +16°C° 0 mm 2 mps 747 mmHg 91%
02:00 +16°C° 0 mm 1 mps 747 mmHg 91%
03:00 +15°C° 0 mm 1 mps 747 mmHg 91%
04:00 +15°C° 0 mm 1 mps 747 mmHg 91%
05:00 +16°C° 0 mm 1 mps 747 mmHg 88%
06:00 +18°C° 0 mm 1 mps 748 mmHg 85%
07:00 +19°C° 0 mm 1 mps 748 mmHg 81%
08:00 +21°C° 0 mm 1 mps 748 mmHg 77%
09:00 +22°C° 0 mm 1 mps 748 mmHg 73%
10:00 +23°C° 0 mm 1 mps 748 mmHg 68%
11:00 +24°C° 0 mm 1 mps 748 mmHg 65%
12:00 +24°C° 0 mm 1 mps 748 mmHg 62%
13:00 +25°C° 0 mm 2 mps 748 mmHg 58%
14:00 +25°C° 0 mm 2 mps 748 mmHg 57%
15:00 +26°C° 0 mm 2 mps 748 mmHg 57%
16:00 +26°C° 0 mm 2 mps 748 mmHg 56%
17:00 +25°C° 0 mm 1 mps 748 mmHg 60%
18:00 +25°C° 0 mm 1 mps 748 mmHg 64%
19:00 +24°C° 0 mm 1 mps 747 mmHg 67%
20:00 +23°C° 0 mm 1 mps 747 mmHg 71%
21:00 +21°C° 0 mm 1 mps 747 mmHg 74%
22:00 +19°C° 0 mm 1 mps 747 mmHg 77%
23:00 +19°C° 0 mm 1 mps 747 mmHg 79%

19 July, Sunday

Time Temperature Precipitation Wind Pressure Humidity
00:00 +18°C° 0 mm 1 mps 747 mmHg 81%
01:00 +18°C° 0 mm 1 mps 747 mmHg 84%
02:00 +18°C° 0 mm 1 mps 747 mmHg 83%
03:00 +18°C° 0 mm 1 mps 747 mmHg 83%
04:00 +18°C° 0 mm 1 mps 747 mmHg 82%
05:00 +18°C° 0.1 mm 1 mps 746 mmHg 84%
06:00 +19°C° 0.1 mm 1 mps 746 mmHg 85%
07:00 +19°C° 0.1 mm 1 mps 746 mmHg 87%
08:00 +19°C° 0.3 mm 1 mps 746 mmHg 87%
09:00 +19°C° 0.3 mm 1 mps 746 mmHg 88%
10:00 +19°C° 0.3 mm 1 mps 746 mmHg 89%
11:00 +19°C° 0 mm 2 mps 746 mmHg 88%
12:00 +19°C° 0 mm 2 mps 746 mmHg 87%
13:00 +19°C° 0 mm 2 mps 746 mmHg 86%
14:00 +20°C° 0 mm 2 mps 746 mmHg 83%
15:00 +21°C° 0 mm 2 mps 745 mmHg 81%
16:00 +21°C° 0 mm 2 mps 745 mmHg 78%
17:00 +21°C° 0.1 mm 3 mps 745 mmHg 79%
18:00 +21°C° 0.1 mm 3 mps 745 mmHg 80%
19:00 +21°C° 0.1 mm 3 mps 744 mmHg 81%
20:00 +20°C° 0.3 mm 3 mps 744 mmHg 85%
21:00 +18°C° 0.3 mm 3 mps 744 mmHg 89%
22:00 +17°C° 0.3 mm 3 mps 744 mmHg 93%
23:00 +17°C° 0.3 mm 3 mps 744 mmHg 93%

20 July, Monday

Time Temperature Precipitation Wind Pressure Humidity
00:00 +17°C° 0.3 mm 3 mps 744 mmHg 93%
01:00 +16°C° 0.3 mm 3 mps 744 mmHg 93%
02:00 +16°C° 0.6 mm 3 mps 744 mmHg 93%
03:00 +16°C° 0.6 mm 3 mps 744 mmHg 93%
04:00 +16°C° 0.6 mm 3 mps 744 mmHg 93%
05:00 +17°C° 0.9 mm 3 mps 744 mmHg 94%
06:00 +17°C° 0.9 mm 3 mps 744 mmHg 94%
07:00 +17°C° 0.9 mm 3 mps 744 mmHg 95%
08:00 +18°C° 0.3 mm 3 mps 744 mmHg 94%
09:00 +18°C° 0.3 mm 2 mps 744 mmHg 93%
10:00 +19°C° 0.3 mm 2 mps 744 mmHg 91%
11:00 +20°C° 0.1 mm 2 mps 744 mmHg 88%
12:00 +20°C° 0.1 mm 2 mps 744 mmHg 86%
13:00 +21°C° 0.1 mm 3 mps 744 mmHg 83%
14:00 +21°C° 0.1 mm 3 mps 744 mmHg 82%
15:00 +22°C° 0.1 mm 3 mps 743 mmHg 81%
16:00 +22°C° 0.1 mm 3 mps 743 mmHg 80%
17:00 +21°C° 0 mm 3 mps 743 mmHg 82%
18:00 +21°C° 0 mm 3 mps 743 mmHg 84%
19:00 +21°C° 0 mm 2 mps 743 mmHg 85%
20:00 +20°C° 0.4 mm 2 mps 743 mmHg 89%
21:00 +19°C° 0.4 mm 2 mps 743 mmHg 93%
22:00 +18°C° 0.4 mm 2 mps 743 mmHg 96%
23:00 +18°C° 0.5 mm 2 mps 743 mmHg 96%

21 July, Tuesday

Time Temperature Precipitation Wind Pressure Humidity
00:00 +17°C° 0.5 mm 2 mps 743 mmHg 97%
01:00 +17°C° 0.5 mm 2 mps 743 mmHg 97%
02:00 +17°C° 0.1 mm 2 mps 743 mmHg 97%
03:00 +17°C° 0.1 mm 2 mps 743 mmHg 97%
04:00 +17°C° 0.1 mm 2 mps 743 mmHg 98%
05:00 +17°C° 0.1 mm 2 mps 743 mmHg 97%
06:00 +18°C° 0.1 mm 2 mps 743 mmHg 96%
07:00 +18°C° 0.1 mm 2 mps 743 mmHg 95%
08:00 +18°C° 0.3 mm 2 mps 744 mmHg 94%
09:00 +19°C° 0.3 mm 2 mps 744 mmHg 92%
10:00 +19°C° 0.3 mm 2 mps 744 mmHg 91%
11:00 +20°C° 0.1 mm 2 mps 744 mmHg 87%
12:00 +21°C° 0.1 mm 2 mps 744 mmHg 84%
13:00 +22°C° 0.1 mm 1 mps 744 mmHg 80%
14:00 +23°C° 0.2 mm 2 mps 744 mmHg 79%
15:00 +23°C° 0.2 mm 2 mps 744 mmHg 77%
16:00 +24°C° 0.2 mm 2 mps 743 mmHg 76%
17:00 +24°C° 0.6 mm 2 mps 743 mmHg 79%
18:00 +23°C° 0.6 mm 1 mps 743 mmHg 82%
19:00 +23°C° 0.6 mm 1 mps 743 mmHg 85%
20:00 +22°C° 0.7 mm 1 mps 743 mmHg 87%
21:00 +20°C° 0.7 mm 1 mps 743 mmHg 90%
22:00 +19°C° 0.7 mm 1 mps 743 mmHg 92%
23:00 +19°C° 0.1 mm 1 mps 743 mmHg 92%
Show more